| time (UTC) | temp F | wind direction | speed MPH | gust MPH | rain 1hr in | rain 24hr in | rain mn in | humidity % | barometer mb |
| 20260510173935 | 64 | 0 | 4.0 | 8.0 | 0.00 | 0.00 | 0.00 | 21 | 1017.4 |
| 20260510173429 | 65 | 0 | 6.0 | 14.0 | 0.00 | 0.00 | 0.00 | 20 | 1017.4 |
| 20260510172417 | 64 | 0 | 4.0 | 10.0 | 0.00 | 0.00 | 0.00 | 19 | 1017.5 |
| 20260510171911 | 64 | 0 | 3.0 | 9.0 | 0.00 | 0.00 | 0.00 | 20 | 1017.7 |
| 20260510171406 | 65 | 0 | 4.0 | 10.0 | 0.00 | 0.00 | 0.00 | 24 | 1017.7 |
| 20260510170859 | 64 | 0 | 4.0 | 10.0 | 0.00 | 0.00 | 0.00 | 20 | 1017.7 |
| 20260510170353 | 65 | 0 | 3.0 | 6.0 | 0.00 | 0.00 | 0.00 | 20 | 1017.6 |
| 20260510165847 | 64 | 0 | 4.0 | 6.0 | 0.00 | 0.00 | 0.00 | 21 | 1017.5 |
| 20260510164835 | 64 | 0 | 3.0 | 10.0 | 0.00 | 0.00 | 0.00 | 19 | 1017.5 |
| 20260510164329 | 65 | 0 | 3.0 | 9.0 | 0.00 | 0.00 | 0.00 | 22 | 1017.5 |
| 20260510163822 | 62 | 0 | 4.0 | 9.0 | 0.00 | 0.00 | 0.00 | 20 | 1017.7 |
| 20260510163317 | 64 | 0 | 4.0 | 9.0 | 0.00 | 0.00 | 0.00 | 24 | 1017.6 |
| 20260510162811 | 64 | 0 | 3.0 | 6.0 | 0.00 | 0.00 | 0.00 | 20 | 1017.6 |
| 20260510161759 | 63 | 0 | 2.0 | 5.0 | 0.00 | 0.00 | 0.00 | 20 | 1017.6 |
| 20260510161252 | 63 | 0 | 3.0 | 6.0 | 0.00 | 0.00 | 0.00 | 21 | 1017.6 |
| 20260510160241 | 62 | 0 | 5.0 | 11.0 | 0.00 | 0.00 | 0.00 | 23 | 1016.9 |
| 20260510155735 | 62 | 0 | 4.0 | 11.0 | 0.00 | 0.00 | 0.00 | 28 | 1016.9 |
| 20260510155228 | 62 | 0 | 4.0 | 11.0 | 0.00 | 0.00 | 0.00 | 21 | 1016.7 |
| 20260510154722 | 62 | 0 | 4.0 | 11.0 | 0.00 | 0.00 | 0.00 | 27 | 1016.8 |
| 20260510154217 | 62 | 0 | 3.0 | 9.0 | 0.00 | 0.00 | 0.00 | 28 | 1016.9 |
| 20260510153711 | 62 | 0 | 3.0 | 10.0 | 0.00 | 0.00 | 0.00 | 24 | 1016.8 |
| 20260510153205 | 61 | 0 | 3.0 | 10.0 | 0.00 | 0.00 | 0.00 | 25 | 1016.9 |
| 20260510152659 | 61 | 0 | 3.0 | 6.0 | 0.00 | 0.00 | 0.00 | 28 | 1016.8 |
| 20260510152153 | 61 | 0 | 3.0 | 8.0 | 0.00 | 0.00 | 0.00 | 30 | 1016.9 |
| 20260510151646 | 61 | 0 | 2.0 | 8.0 | 0.00 | 0.00 | 0.00 | 31 | 1016.9 |
| 20260510151140 | 60 | 0 | 3.0 | 6.0 | 0.00 | 0.00 | 0.00 | 33 | 1017.0 |
| 20260510150129 | 60 | 0 | 3.0 | 5.0 | 0.00 | 0.00 | 0.00 | 33 | 1017.1 |
| 20260510145623 | 60 | 0 | 3.0 | 9.0 | 0.00 | 0.00 | 0.00 | 40 | 1017.2 |
| 20260510145116 | 59 | 0 | 3.0 | 9.0 | 0.00 | 0.00 | 0.00 | 38 | 1017.2 |
| 20260510144105 | 57 | 0 | 4.0 | 9.0 | 0.00 | 0.00 | 0.00 | 38 | 1017.1 |
| 20260510143559 | 58 | 0 | 4.0 | 9.0 | 0.00 | 0.00 | 0.00 | 38 | 1017.0 |
| 20260510143053 | 58 | 0 | 4.0 | 8.0 | 0.00 | 0.00 | 0.00 | 40 | 1017.0 |
| 20260510142546 | 58 | 0 | 3.0 | 8.0 | 0.00 | 0.00 | 0.00 | 45 | 1016.9 |
| 20260510142041 | 58 | 0 | 3.0 | 5.0 | 0.00 | 0.00 | 0.00 | 46 | 1016.9 |
| 20260510141535 | 56 | 0 | 3.0 | 5.0 | 0.00 | 0.00 | 0.00 | 43 | 1016.9 |
| 20260510141029 | 56 | 0 | 3.0 | 5.0 | 0.00 | 0.00 | 0.00 | 45 | 1016.8 |
| 20260510140522 | 56 | 0 | 3.0 | 9.0 | 0.00 | 0.00 | 0.00 | 46 | 1016.9 |
| 20260510140017 | 55 | 0 | 4.0 | 9.0 | 0.00 | 0.00 | 0.00 | 46 | 1016.8 |
| 20260510135511 | 55 | 0 | 4.0 | 9.0 | 0.00 | 0.00 | 0.00 | 46 | 1016.8 |
| 20260510135004 | 55 | 0 | 4.0 | 8.0 | 0.00 | 0.00 | 0.00 | 45 | 1016.7 |
| 20260510134458 | 54 | 0 | 4.0 | 9.0 | 0.00 | 0.00 | 0.00 | 46 | 1016.7 |
| 20260510133952 | 54 | 0 | 3.0 | 9.0 | 0.00 | 0.00 | 0.00 | 48 | 1016.6 |
| 20260510132941 | 53 | 0 | 4.0 | 8.0 | 0.00 | 0.00 | 0.00 | 50 | 1016.3 |
| 20260510132435 | 53 | 0 | 4.0 | 8.0 | 0.00 | 0.00 | 0.00 | 50 | 1016.3 |
| 20260510131928 | 52 | 0 | 5.0 | 10.0 | 0.00 | 0.00 | 0.00 | 50 | 1016.3 |
| 20260510131422 | 51 | 0 | 6.0 | 10.0 | 0.00 | 0.00 | 0.00 | 51 | 1016.2 |
| 20260510130917 | 51 | 0 | 5.0 | 10.0 | 0.00 | 0.00 | 0.00 | 53 | 1016.1 |
| 20260510130411 | 50 | 0 | 4.0 | 9.0 | 0.00 | 0.00 | 0.00 | 53 | 1016.2 |
| 20260510125905 | 50 | 0 | 4.0 | 10.0 | 0.00 | 0.00 | 0.00 | 54 | 1016.1 |
| 20260510125358 | 50 | 0 | 5.0 | 10.0 | 0.00 | 0.00 | 0.00 | 54 | 1016.1 |
| 20260510124853 | 49 | 0 | 4.0 | 10.0 | 0.00 | 0.00 | 0.00 | 54 | 1015.9 |
| 20260510124347 | 49 | 0 | 4.0 | 10.0 | 0.00 | 0.00 | 0.00 | 55 | 1015.9 |
| 20260510123840 | 49 | 0 | 4.0 | 9.0 | 0.00 | 0.00 | 0.00 | 55 | 1015.9 |
| 20260510123335 | 49 | 0 | 5.0 | 10.0 | 0.00 | 0.00 | 0.00 | 55 | 1015.8 |
| 20260510122829 | 48 | 0 | 5.0 | 10.0 | 0.00 | 0.00 | 0.00 | 55 | 1015.8 |
| 20260510122323 | 48 | 0 | 5.0 | 9.0 | 0.00 | 0.00 | 0.00 | 56 | 1015.7 |
| 20260510121311 | 48 | 0 | 5.0 | 11.0 | 0.00 | 0.00 | 0.00 | 56 | 1015.5 |
| 20260510120804 | 48 | 0 | 4.0 | 9.0 | 0.00 | 0.00 | 0.00 | 57 | 1015.3 |
| 20260510120259 | 47 | 0 | 4.0 | 8.0 | 0.00 | 0.00 | 0.00 | 58 | 1015.1 |
| 20260510115247 | 47 | 0 | 2.0 | 8.0 | 0.00 | 0.00 | 0.00 | 59 | 1015.0 |
| 20260510113223 | 46 | 0 | 1.0 | 5.0 | 0.00 | 0.00 | 0.00 | 58 | 1014.6 |
| 20260510112717 | 46 | 0 | 1.0 | 5.0 | 0.00 | 0.00 | 0.00 | 58 | 1014.6 |
| 20260510112211 | 47 | 0 | 1.0 | 4.0 | 0.00 | 0.00 | 0.00 | 57 | 1014.4 |
| 20260510111704 | 47 | 0 | 1.0 | 4.0 | 0.00 | 0.00 | 0.00 | 57 | 1014.4 |
| 20260510111158 | 47 | 0 | 1.0 | 5.0 | 0.00 | 0.00 | 0.00 | 57 | 1014.4 |
| 20260510110652 | 47 | 0 | 1.0 | 8.0 | 0.00 | 0.00 | 0.00 | 57 | 1014.1 |
| 20260510110146 | 47 | 0 | 1.0 | 8.0 | 0.00 | 0.00 | 0.00 | 56 | 1014.0 |
| 20260510105640 | 47 | 0 | 2.0 | 5.0 | 0.00 | 0.00 | 0.00 | 56 | 1014.0 |
| 20260510105135 | 47 | 0 | 2.0 | 5.0 | 0.00 | 0.00 | 0.00 | 56 | 1013.9 |
| 20260510104123 | 48 | 0 | 1.0 | 4.0 | 0.00 | 0.00 | 0.00 | 55 | 1013.7 |
| 20260510103111 | 49 | 25 | 1.0 | 4.0 | 0.00 | 0.00 | 0.00 | 55 | 1013.5 |
| 20260510102605 | 49 | 30 | 1.0 | 4.0 | 0.00 | 0.00 | 0.00 | 55 | 1013.3 |
| 20260510102059 | 49 | 30 | 2.0 | 6.0 | 0.00 | 0.00 | 0.00 | 54 | 1013.2 |
| 20260510101553 | 50 | 5 | 2.0 | 6.0 | 0.00 | 0.00 | 0.00 | 54 | 1013.2 |
| 20260510100541 | 51 | 314 | 3.0 | 7.0 | 0.00 | 0.00 | 0.00 | 53 | 1013.1 |
| 20260510100035 | 51 | 5 | 3.0 | 7.0 | 0.00 | 0.00 | 0.00 | 52 | 1012.9 |
| 20260510095529 | 51 | 322 | 3.0 | 10.0 | 0.00 | 0.00 | 0.00 | 52 | 1012.8 |
| 20260510094516 | 53 | 0 | 2.0 | 4.0 | 0.00 | 0.00 | 0.00 | 53 | 1012.6 |
| 20260510094011 | 53 | 26 | 1.0 | 4.0 | 0.00 | 0.00 | 0.00 | 53 | 1012.4 |
| 20260510092959 | 53 | 50 | 1.0 | 4.0 | 0.00 | 0.00 | 0.00 | 53 | 1012.2 |
| 20260510091950 | 54 | 21 | 0.0 | 0.0 | 0.00 | 0.00 | 0.00 | 53 | 1012.3 |
| 20260510091450 | 54 | 21 | 0.0 | 0.0 | 0.00 | 0.00 | 0.00 | 53 | 1012.2 |
| 20260510090949 | 54 | 21 | 0.0 | 0.0 | 0.00 | 0.00 | 0.00 | 52 | 1012.3 |
| 20260510090446 | 54 | 21 | 0.0 | 0.0 | 0.00 | 0.00 | 0.00 | 52 | 1012.1 |
| 20260510085945 | 54 | 24 | 0.0 | 0.0 | 0.00 | 0.00 | 0.00 | 52 | 1012.1 |
| 20260510085447 | 54 | 320 | 0.0 | 0.0 | 0.00 | 0.00 | 0.00 | 53 | 1012.1 |
| 20260510084945 | 54 | 27 | 0.0 | 0.0 | 0.00 | 0.00 | 0.00 | 53 | 1012.0 |
| 20260510084448 | 55 | 27 | 0.0 | 0.0 | 0.00 | 0.00 | 0.00 | 53 | 1012.0 |
| 20260510083945 | 55 | 27 | 0.0 | 0.0 | 0.00 | 0.00 | 0.00 | 53 | 1012.0 |
| 20260510083443 | 55 | 27 | 0.0 | 0.0 | 0.00 | 0.00 | 0.00 | 53 | 1012.0 |
| 20260510082942 | 55 | 28 | 0.0 | 0.0 | 0.00 | 0.00 | 0.00 | 53 | 1011.9 |
| 20260510082442 | 55 | 28 | 0.0 | 0.0 | 0.00 | 0.00 | 0.00 | 53 | 1011.7 |
| 20260510081440 | 55 | 43 | 0.0 | 3.0 | 0.00 | 0.00 | 0.00 | 52 | 1011.7 |
| 20260510080437 | 55 | 25 | 1.0 | 3.0 | 0.00 | 0.00 | 0.00 | 53 | 1011.5 |
| 20260510075939 | 55 | 25 | 0.0 | 3.0 | 0.00 | 0.00 | 0.00 | 52 | 1011.8 |
| 20260510074941 | 55 | 25 | 0.0 | 1.0 | 0.00 | 0.00 | 0.00 | 51 | 1011.5 |
| 20260510074435 | 55 | 25 | 0.0 | 4.0 | 0.00 | 0.00 | 0.00 | 51 | 1011.5 |
| 20260510073929 | 55 | 25 | 0.0 | 4.0 | 0.00 | 0.00 | 0.00 | 51 | 1011.4 |
| 20260510073424 | 55 | 52 | 0.0 | 1.0 | 0.00 | 0.00 | 0.00 | 51 | 1011.2 |
| 20260510072917 | 56 | 52 | 0.0 | 3.0 | 0.00 | 0.00 | 0.00 | 50 | 1011.4 |
| 20260510072412 | 56 | 52 | 1.0 | 3.0 | 0.00 | 0.00 | 0.00 | 50 | 1011.1 |
| 20260510071905 | 56 | 49 | 1.0 | 4.0 | 0.00 | 0.00 | 0.00 | 51 | 1011.1 |
| 20260510071359 | 56 | 55 | 0.0 | 3.0 | 0.00 | 0.00 | 0.00 | 50 | 1011.1 |
| 20260510070347 | 56 | 51 | 0.0 | 0.0 | 0.00 | 0.00 | 0.00 | 50 | 1011.0 |
| 20260510065841 | 56 | 51 | 0.0 | 0.0 | 0.00 | 0.00 | 0.00 | 49 | 1010.7 |
| 20260510064323 | 56 | 51 | 0.0 | 0.0 | 0.00 | 0.00 | 0.00 | 49 | 1011.1 |
| 20260510063817 | 56 | 59 | 0.0 | 0.0 | 0.00 | 0.00 | 0.00 | 49 | 1010.9 |
| 20260510063312 | 56 | 73 | 0.0 | 0.0 | 0.00 | 0.00 | 0.00 | 48 | 1010.9 |
| 20260510062806 | 56 | 73 | 0.0 | 0.0 | 0.00 | 0.00 | 0.00 | 48 | 1010.7 |
| 20260510062301 | 56 | 73 | 0.0 | 0.0 | 0.00 | 0.00 | 0.00 | 48 | 1010.7 |
| 20260510060755 | 57 | 119 | 0.0 | 0.0 | 0.00 | 0.00 | 0.00 | 48 | 1010.9 |
| 20260510060255 | 57 | 119 | 0.0 | 2.0 | 0.00 | 0.00 | 0.00 | 48 | 1010.7 |
| 20260510055757 | 57 | 119 | 0.0 | 2.0 | 0.00 | 0.00 | 0.00 | 47 | 1010.7 |
| 20260510055256 | 57 | 119 | 0.0 | 3.0 | 0.00 | 0.00 | 0.00 | 47 | 1010.7 |
| 20260510054755 | 57 | 119 | 1.0 | 3.0 | 0.00 | 0.00 | 0.00 | 47 | 1010.7 |
| 20260510054255 | 57 | 90 | 1.0 | 2.0 | 0.00 | 0.00 | 0.00 | 46 | 1010.5 |
| 20260510053753 | 58 | 90 | 0.0 | 4.0 | 0.00 | 0.00 | 0.00 | 45 | 1010.4 |
| 20260510052755 | 58 | 65 | 2.0 | 4.0 | 0.00 | 0.00 | 0.00 | 45 | 1010.3 |
| 20260510052252 | 58 | 64 | 2.0 | 5.0 | 0.00 | 0.00 | 0.00 | 45 | 1010.2 |
| 20260510051753 | 58 | 84 | 2.0 | 5.0 | 0.00 | 0.00 | 0.00 | 45 | 1010.2 |
| 20260510051250 | 58 | 75 | 3.0 | 7.0 | 0.00 | 0.00 | 0.00 | 44 | 1010.2 |
| 20260510050749 | 58 | 34 | 3.0 | 7.0 | 0.00 | 0.00 | 0.00 | 44 | 1010.1 |
| 20260510050247 | 58 | 24 | 3.0 | 9.0 | 0.00 | 0.00 | 0.00 | 43 | 1010.2 |
| 20260510045747 | 58 | 19 | 3.0 | 9.0 | 0.00 | 0.00 | 0.00 | 43 | 1009.8 |
| 20260510044234 | 59 | 173 | 1.0 | 4.0 | 0.00 | 0.00 | 0.00 | 43 | 1009.9 |
| 20260510043728 | 59 | 36 | 0.0 | 0.0 | 0.00 | 0.00 | 0.00 | 44 | 1009.9 |
| 20260510043222 | 59 | 83 | 0.0 | 2.0 | 0.00 | 0.00 | 0.00 | 43 | 1009.7 |
| 20260510042716 | 60 | 83 | 1.0 | 6.0 | 0.00 | 0.00 | 0.00 | 43 | 1009.5 |
| 20260510042210 | 60 | 102 | 1.0 | 6.0 | 0.00 | 0.00 | 0.00 | 42 | 1009.3 |
| 20260510041705 | 60 | 82 | 2.0 | 7.0 | 0.00 | 0.00 | 0.00 | 42 | 1009.2 |
| 20260510041200 | 60 | 92 | 3.0 | 9.0 | 0.00 | 0.00 | 0.00 | 41 | 1009.1 |
| 20260510040659 | 61 | 67 | 4.0 | 10.0 | 0.00 | 0.00 | 0.00 | 39 | 1009.0 |
| 20260510040158 | 61 | 111 | 4.0 | 10.0 | 0.00 | 0.00 | 0.00 | 39 | 1008.7 |
| 20260510035657 | 62 | 35 | 3.0 | 10.0 | 0.00 | 0.00 | 0.00 | 41 | 1008.7 |
| 20260510035158 | 63 | 85 | 2.0 | 9.0 | 0.00 | 0.00 | 0.00 | 43 | 1008.7 |
| 20260510034156 | 64 | 298 | 0.0 | 2.0 | 0.00 | 0.00 | 0.00 | 43 | 1008.3 |
| 20260510033152 | 64 | 298 | 1.0 | 4.0 | 0.00 | 0.00 | 0.00 | 42 | 1008.4 |
| 20260510032652 | 64 | 298 | 1.0 | 3.0 | 0.00 | 0.00 | 0.00 | 41 | 1008.2 |
| 20260510032154 | 64 | 298 | 2.0 | 4.0 | 0.00 | 0.00 | 0.00 | 41 | 1008.1 |
| 20260510031650 | 64 | 298 | 2.0 | 5.0 | 0.00 | 0.00 | 0.00 | 40 | 1008.1 |
| 20260510031150 | 65 | 339 | 1.0 | 5.0 | 0.00 | 0.00 | 0.00 | 40 | 1007.9 |
| 20260510030654 | 65 | 355 | 1.0 | 4.0 | 0.00 | 0.00 | 0.00 | 40 | 1007.9 |
| 20260510025653 | 65 | 321 | 3.0 | 8.0 | 0.00 | 0.00 | 0.00 | 39 | 1007.9 |
| 20260510025151 | 65 | 244 | 3.0 | 8.0 | 0.00 | 0.00 | 0.00 | 38 | 1007.9 |
| 20260510024651 | 65 | 292 | 3.0 | 6.0 | 0.00 | 0.00 | 0.00 | 38 | 1007.8 |
| 20260510024151 | 65 | 294 | 3.0 | 5.0 | 0.00 | 0.00 | 0.00 | 38 | 1007.8 |
| 20260510023652 | 65 | 286 | 3.0 | 6.0 | 0.00 | 0.00 | 0.00 | 38 | 1007.7 |
| 20260510023151 | 65 | 291 | 3.0 | 6.0 | 0.00 | 0.00 | 0.00 | 38 | 1007.6 |
| 20260510022651 | 65 | 284 | 2.0 | 6.0 | 0.00 | 0.00 | 0.00 | 37 | 1007.6 |
| 20260510022151 | 65 | 283 | 2.0 | 6.0 | 0.00 | 0.00 | 0.00 | 37 | 1007.6 |
| 20260510021652 | 66 | 300 | 2.0 | 5.0 | 0.00 | 0.00 | 0.00 | 37 | 1007.5 |
| 20260510020647 | 66 | 288 | 3.0 | 6.0 | 0.00 | 0.00 | 0.00 | 36 | 1007.4 |
| 20260510020147 | 66 | 311 | 3.0 | 6.0 | 0.00 | 0.00 | 0.00 | 36 | 1007.3 |
| 20260510015647 | 66 | 282 | 3.0 | 7.0 | 0.00 | 0.00 | 0.00 | 35 | 1007.1 |
| 20260510015146 | 67 | 304 | 3.0 | 7.0 | 0.00 | 0.00 | 0.00 | 34 | 1007.1 |
| 20260510013647 | 67 | 287 | 3.0 | 8.0 | 0.00 | 0.00 | 0.00 | 34 | 1006.9 |
| 20260510013147 | 67 | 273 | 3.0 | 9.0 | 0.00 | 0.00 | 0.00 | 33 | 1006.7 |
| 20260510011642 | 68 | 294 | 2.0 | 6.0 | 0.00 | 0.00 | 0.00 | 32 | 1006.5 |
| 20260510010642 | 68 | 284 | 3.0 | 7.0 | 0.00 | 0.00 | 0.00 | 32 | 1006.3 |
| 20260510010144 | 68 | 314 | 3.0 | 10.0 | 0.00 | 0.00 | 0.00 | 31 | 1006.1 |
| 20260510005644 | 69 | 343 | 3.0 | 10.0 | 0.00 | 0.00 | 0.00 | 30 | 1006.1 |
| 20260510005143 | 69 | 325 | 2.0 | 7.0 | 0.00 | 0.00 | 0.00 | 30 | 1006.0 |
| 20260510004642 | 69 | 328 | 2.0 | 7.0 | 0.00 | 0.00 | 0.00 | 30 | 1005.9 |
| 20260510003638 | 70 | 309 | 5.0 | 10.0 | 0.00 | 0.00 | 0.00 | 28 | 1005.7 |
| 20260510002639 | 70 | 282 | 7.0 | 14.0 | 0.00 | 0.00 | 0.00 | 27 | 1005.7 |
| 20260510002139 | 70 | 287 | 7.0 | 14.0 | 0.00 | 0.00 | 0.00 | 26 | 1005.6 |
| 20260510001639 | 71 | 296 | 7.0 | 12.0 | 0.00 | 0.00 | 0.00 | 25 | 1005.5 |
| 20260510001139 | 71 | 300 | 7.0 | 14.0 | 0.00 | 0.00 | 0.00 | 25 | 1005.3 |
| 20260510000139 | 71 | 277 | 7.0 | 14.0 | 0.00 | 0.00 | 0.00 | 24 | 1005.1 |
| 20260509235639 | 72 | 284 | 6.0 | 12.0 | 0.00 | 0.00 | 0.00 | 25 | 1005.1 |
| 20260509235141 | 72 | 323 | 6.0 | 13.0 | 0.00 | 0.00 | 0.00 | 25 | 1005.1 |
| 20260509234638 | 72 | 284 | 7.0 | 14.0 | 0.00 | 0.00 | 0.00 | 25 | 1005.1 |
| 20260509234140 | 72 | 279 | 6.0 | 14.0 | 0.00 | 0.00 | 0.00 | 24 | 1005.1 |
| 20260509233639 | 72 | 295 | 6.0 | 13.0 | 0.00 | 0.00 | 0.00 | 24 | 1004.9 |
| 20260509232640 | 72 | 302 | 6.0 | 14.0 | 0.00 | 0.00 | 0.00 | 24 | 1004.9 |
| 20260509232139 | 73 | 279 | 7.0 | 15.0 | 0.00 | 0.00 | 0.00 | 23 | 1004.8 |
| 20260509231138 | 73 | 286 | 8.0 | 17.0 | 0.00 | 0.00 | 0.00 | 23 | 1004.9 |
| 20260509230639 | 73 | 304 | 7.0 | 17.0 | 0.00 | 0.00 | 0.00 | 24 | 1004.8 |
| 20260509230139 | 74 | 318 | 6.0 | 12.0 | 0.00 | 0.00 | 0.00 | 24 | 1004.7 |
| 20260509225640 | 74 | 286 | 5.0 | 12.0 | 0.00 | 0.00 | 0.00 | 28 | 1004.7 |
| 20260509224639 | 74 | 238 | 6.0 | 17.0 | 0.00 | 0.00 | 0.00 | 28 | 1004.5 |
| 20260509224141 | 74 | 269 | 7.0 | 17.0 | 0.00 | 0.00 | 0.00 | 27 | 1004.5 |
| 20260509223142 | 75 | 292 | 7.0 | 14.0 | 0.00 | 0.00 | 0.00 | 27 | 1004.5 |
| 20260509222637 | 75 | 275 | 8.0 | 17.0 | 0.00 | 0.00 | 0.00 | 27 | 1004.4 |
| 20260509222133 | 75 | 253 | 8.0 | 17.0 | 0.00 | 0.00 | 0.00 | 26 | 1004.4 |
| 20260509221633 | 75 | 308 | 7.0 | 12.0 | 0.00 | 0.00 | 0.00 | 27 | 1004.5 |
| 20260509221132 | 75 | 289 | 7.0 | 17.0 | 0.00 | 0.00 | 0.00 | 26 | 1004.5 |
| 20260509220132 | 75 | 257 | 7.0 | 14.0 | 0.00 | 0.00 | 0.00 | 26 | 1004.4 |
| 20260509215632 | 75 | 250 | 5.0 | 14.0 | 0.00 | 0.00 | 0.00 | 25 | 1004.3 |
| 20260509215130 | 75 | 261 | 6.0 | 16.0 | 0.00 | 0.00 | 0.00 | 26 | 1004.3 |
| 20260509214632 | 75 | 275 | 7.0 | 17.0 | 0.00 | 0.00 | 0.00 | 26 | 1004.3 |
| 20260509214131 | 76 | 282 | 7.0 | 20.0 | 0.00 | 0.00 | 0.00 | 25 | 1004.2 |
| 20260509213630 | 76 | 304 | 7.0 | 20.0 | 0.00 | 0.00 | 0.00 | 25 | 1004.2 |
| 20260509212632 | 75 | 245 | 5.0 | 11.0 | 0.00 | 0.00 | 0.00 | 30 | 1004.2 |
| 20260509211631 | 74 | 288 | 8.0 | 14.0 | 0.00 | 0.00 | 0.00 | 26 | 1004.2 |
| 20260509211132 | 74 | 281 | 8.0 | 17.0 | 0.00 | 0.00 | 0.00 | 26 | 1004.2 |
| 20260509210630 | 75 | 297 | 7.0 | 17.0 | 0.00 | 0.00 | 0.00 | 25 | 1004.2 |
| 20260509210132 | 75 | 283 | 7.0 | 15.0 | 0.00 | 0.00 | 0.00 | 26 | 1004.1 |
| 20260509205626 | 76 | 292 | 8.0 | 14.0 | 0.00 | 0.00 | 0.00 | 28 | 1004.1 |
| 20260509205128 | 77 | 296 | 8.0 | 18.0 | 0.00 | 0.00 | 0.00 | 29 | 1004.2 |
| 20260509204126 | 76 | 0 | 8.0 | 15.0 | 0.00 | 0.00 | 0.00 | 29 | 1004.2 |
| 20260509203626 | 75 | 0 | 8.0 | 15.0 | 0.00 | 0.00 | 0.00 | 29 | 1004.2 |
| 20260509203124 | 74 | 0 | 8.0 | 15.0 | 0.00 | 0.00 | 0.00 | 28 | 1004.2 |
| 20260509202622 | 75 | 0 | 8.0 | 18.0 | 0.00 | 0.00 | 0.00 | 28 | 1004.3 |
| 20260509202123 | 75 | 0 | 9.0 | 18.0 | 0.00 | 0.00 | 0.00 | 29 | 1004.3 |
| 20260509201624 | 75 | 0 | 9.0 | 15.0 | 0.00 | 0.00 | 0.00 | 28 | 1004.3 |
| 20260509201124 | 75 | 0 | 9.0 | 17.0 | 0.00 | 0.00 | 0.00 | 29 | 1004.2 |
| 20260509200621 | 75 | 0 | 8.0 | 17.0 | 0.00 | 0.00 | 0.00 | 28 | 1004.3 |
| 20260509200120 | 74 | 0 | 8.0 | 17.0 | 0.00 | 0.00 | 0.00 | 30 | 1004.2 |
| 20260509195121 | 76 | 0 | 9.0 | 19.0 | 0.00 | 0.00 | 0.00 | 28 | 1004.3 |
| 20260509194621 | 76 | 282 | 9.0 | 19.0 | 0.00 | 0.00 | 0.00 | 32 | 1004.2 |
| 20260509194121 | 75 | 282 | 9.0 | 19.0 | 0.00 | 0.00 | 0.00 | 30 | 1004.3 |
| 20260509193615 | 75 | 0 | 8.0 | 19.0 | 0.00 | 0.00 | 0.00 | 33 | 1004.3 |
| 20260509192109 | 75 | 0 | 6.0 | 15.0 | 0.00 | 0.00 | 0.00 | 34 | 1004.2 |
| 20260509191610 | 74 | 0 | 7.0 | 15.0 | 0.00 | 0.00 | 0.00 | 34 | 1004.3 |
| 20260509191110 | 75 | 286 | 8.0 | 16.0 | 0.00 | 0.00 | 0.00 | 33 | 1004.2 |
| 20260509190609 | 75 | 281 | 7.0 | 16.0 | 0.00 | 0.00 | 0.00 | 33 | 1004.3 |
| 20260509185608 | 75 | 265 | 6.0 | 14.0 | 0.00 | 0.00 | 0.00 | 36 | 1004.4 |
| 20260509185108 | 74 | 0 | 6.0 | 17.0 | 0.00 | 0.00 | 0.00 | 36 | 1004.3 |
| 20260509184609 | 76 | 0 | 5.0 | 17.0 | 0.00 | 0.00 | 0.00 | 36 | 1004.2 |
| 20260509183608 | 75 | 0 | 6.0 | 13.0 | 0.00 | 0.01 | 0.00 | 38 | 1004.3 |
| 20260509182608 | 73 | 0 | 6.0 | 14.0 | 0.00 | 0.02 | 0.00 | 40 | 1004.2 |
| 20260509182109 | 74 | 0 | 5.0 | 14.0 | 0.00 | 0.03 | 0.00 | 44 | 1004.2 |
| 20260509181609 | 73 | 0 | 6.0 | 12.0 | 0.00 | 0.04 | 0.00 | 46 | 1004.2 |
| 20260509180602 | 73 | 0 | 7.0 | 24.0 | 0.00 | 0.05 | 0.00 | 46 | 1004.1 |
| 20260509180055 | 72 | 0 | 7.0 | 24.0 | 0.00 | 0.06 | 0.00 | 47 | 1004.3 |
| 20260509175554 | 72 | 0 | 6.0 | 13.0 | 0.00 | 0.06 | 0.00 | 47 | 1004.3 |
| 20260509175052 | 73 | 0 | 5.0 | 16.0 | 0.00 | 0.07 | 0.00 | 50 | 1004.4 |
| 20260509174556 | 72 | 0 | 6.0 | 16.0 | 0.00 | 0.07 | 0.00 | 48 | 1004.5 |